| time (UTC) | temp F | wind direction | speed knots | gust knots | rain 1hr in | rain 24hr in | rain mn in | humidity % | barometer mb |
| 20260504034555 | 52 | 272 | 0.0 | 0.0 | 0.00 | 0.03 | 0.03 | 75 | 1006.0 |
| 20260504033057 | 52 | 272 | 0.0 | 0.0 | 0.00 | 0.03 | 0.03 | 75 | 1006.2 |
| 20260504031622 | 53 | 272 | 0.0 | 0.0 | 0.00 | 0.03 | 0.03 | 75 | 1006.1 |
| 20260504030054 | 53 | 272 | 0.0 | 0.0 | 0.00 | 0.03 | 0.03 | 75 | 1006.1 |
| 20260504024553 | 53 | 272 | 0.0 | 0.0 | 0.00 | 0.03 | 0.03 | 74 | 1005.9 |
| 20260504023053 | 53 | 272 | 0.0 | 0.0 | 0.00 | 0.03 | 0.03 | 74 | 1005.9 |
| 20260504021600 | 54 | 272 | 0.0 | 0.0 | 0.00 | 0.03 | 0.03 | 75 | 1005.8 |
| 20260504020052 | 55 | 272 | 0.0 | 0.0 | 0.00 | 0.03 | 0.03 | 74 | 1005.8 |
| 20260504014552 | 56 | 272 | 0.0 | 0.0 | 0.00 | 0.03 | 0.03 | 73 | 1005.7 |
| 20260504013055 | 57 | 272 | 0.0 | 0.0 | 0.00 | 0.03 | 0.03 | 71 | 1005.6 |
| 20260504011554 | 59 | 272 | 0.0 | 0.0 | 0.00 | 0.03 | 0.03 | 66 | 1005.5 |
| 20260504010057 | 62 | 272 | 0.0 | 0.0 | 0.00 | 0.03 | 0.03 | 62 | 1005.5 |
| 20260504004549 | 64 | 272 | 0.0 | 0.0 | 0.00 | 0.03 | 0.03 | 59 | 1005.2 |
| 20260504003050 | 67 | 272 | 0.0 | 1.7 | 0.00 | 0.03 | 0.03 | 55 | 1005.2 |
| 20260504001605 | 68 | 273 | 0.9 | 3.5 | 0.00 | 0.03 | 0.03 | 46 | 1005.4 |
| 20260504000046 | 69 | 256 | 0.9 | 2.6 | 0.00 | 0.03 | 0.03 | 44 | 1005.5 |
| 20260503234546 | 70 | 272 | 1.7 | 3.5 | 0.00 | 0.03 | 0.03 | 42 | 1005.4 |
| 20260503233044 | 70 | 263 | 3.5 | 9.6 | 0.00 | 0.03 | 0.03 | 42 | 1005.5 |
| 20260503231549 | 70 | 291 | 2.6 | 7.0 | 0.00 | 0.03 | 0.03 | 41 | 1005.6 |
| 20260503230041 | 69 | 298 | 3.5 | 9.6 | 0.00 | 0.03 | 0.03 | 42 | 1005.7 |
| 20260503224542 | 70 | 223 | 3.5 | 11.3 | 0.00 | 0.03 | 0.03 | 42 | 1005.9 |
| 20260503223042 | 70 | 269 | 3.5 | 9.6 | 0.00 | 0.03 | 0.03 | 43 | 1005.9 |
| 20260503221537 | 69 | 269 | 3.5 | 9.6 | 0.00 | 0.03 | 0.03 | 43 | 1006.0 |
| 20260503220039 | 69 | 190 | 3.5 | 7.8 | 0.00 | 0.03 | 0.03 | 44 | 1006.0 |
| 20260503214541 | 69 | 238 | 3.5 | 11.3 | 0.00 | 0.03 | 0.03 | 46 | 1006.0 |
| 20260503213048 | 68 | 272 | 2.6 | 9.6 | 0.00 | 0.03 | 0.03 | 47 | 1006.2 |
| 20260503211533 | 68 | 252 | 2.6 | 9.6 | 0.00 | 0.03 | 0.03 | 44 | 1006.4 |
| 20260503210026 | 67 | 295 | 3.5 | 7.8 | 0.00 | 0.03 | 0.03 | 45 | 1006.6 |
| 20260503204528 | 67 | 309 | 3.5 | 11.3 | 0.00 | 0.03 | 0.03 | 45 | 1006.8 |
| 20260503203023 | 67 | 288 | 3.5 | 10.4 | 0.00 | 0.03 | 0.03 | 48 | 1007.0 |
| 20260503201522 | 67 | 244 | 3.5 | 10.4 | 0.00 | 0.03 | 0.03 | 48 | 1007.3 |
| 20260503200014 | 66 | 191 | 2.6 | 13.9 | 0.00 | 0.03 | 0.03 | 48 | 1007.5 |
| 20260503194516 | 65 | 254 | 4.3 | 14.8 | 0.00 | 0.03 | 0.03 | 47 | 1007.8 |
| 20260503193008 | 65 | 224 | 5.2 | 14.8 | 0.00 | 0.03 | 0.03 | 47 | 1008.2 |
| 20260503191506 | 64 | 186 | 4.3 | 15.6 | 0.00 | 0.03 | 0.03 | 48 | 1008.4 |
| 20260503190004 | 64 | 250 | 2.6 | 7.8 | 0.00 | 0.03 | 0.03 | 55 | 1008.4 |
| 20260503184637 | 63 | 208 | 3.5 | 9.6 | 0.00 | 0.03 | 0.03 | 57 | 1008.8 |
| 20260503183106 | 61 | 230 | 1.7 | 13.9 | 0.00 | 0.03 | 0.03 | 58 | 1009.2 |
| 20260503181556 | 61 | 232 | 2.6 | 10.4 | 0.00 | 0.03 | 0.03 | 60 | 1009.3 |
| 20260503180055 | 61 | 71 | 3.5 | 11.3 | 0.00 | 0.03 | 0.03 | 57 | 1009.2 |
| 20260503174610 | 61 | 316 | 4.3 | 9.6 | 0.00 | 0.03 | 0.03 | 54 | 1009.3 |
| 20260503173114 | 62 | 271 | 2.6 | 10.4 | 0.00 | 0.03 | 0.03 | 54 | 1009.6 |
| 20260503171548 | 61 | 236 | 2.6 | 7.8 | 0.00 | 0.03 | 0.03 | 55 | 1009.7 |
| 20260503081518 | 46 | 230 | 0.0 | 3.5 | 0.00 | 0.00 | 0.00 | 59 | 1014.9 |
| 20260503071513 | 46 | 243 | 0.9 | 2.6 | 0.00 | 0.00 | 0.00 | 60 | 1015.2 |
| 20260503054600 | 45 | 225 | 0.0 | 2.6 | 0.00 | 0.00 | 0.00 | 61 | 1015.8 |
| 20260503053054 | 44 | 257 | 0.0 | 3.5 | 0.00 | 0.00 | 0.00 | 64 | 1015.9 |
| 20260503051553 | 43 | 261 | 0.0 | 2.6 | 0.00 | 0.00 | 0.00 | 66 | 1016.0 |
| 20260503050047 | 42 | 244 | 0.0 | 1.7 | 0.00 | 0.00 | 0.00 | 72 | 1016.2 |
| 20260503044545 | 41 | 247 | 0.0 | 1.7 | 0.00 | 0.00 | 0.00 | 75 | 1016.3 |
| 20260503043046 | 41 | 246 | 0.0 | 0.9 | 0.00 | 0.00 | 0.00 | 75 | 1016.4 |
| 20260503041543 | 41 | 247 | 0.0 | 1.7 | 0.00 | 0.00 | 0.00 | 76 | 1016.5 |
| 20260503040042 | 41 | 246 | 0.0 | 0.9 | 0.00 | 0.00 | 0.00 | 76 | 1016.6 |